When you browse on this site, cookies collect data to enhance your experience and personalize the content and advertising you see.
Visit our Privacy Policy to learn more. By continuing to use the site, you agree to this use of cookies and data.
  • In Hungary
  • List of Countries
  • For 7 days
  • Water Temperature
  • Weather Map
  • News
  • Weather Widgets
  • user-avatar
    Login

    Hourly Weather Eskino

    Today, 23 September, Monday

    Time Temperature Precipitation Wind Pressure Humidity
    00:00 +1°C° 0 mm 4 mps 741 mmHg 84%
    01:00 +1°C° 0 mm 4 mps 742 mmHg 81%
    02:00 +1°C° 0 mm 4 mps 742 mmHg 79%
    03:00 +3°C° 0 mm 4 mps 743 mmHg 77%
    04:00 +3°C° 0 mm 4 mps 743 mmHg 76%
    05:00 +1°C° 0 mm 5 mps 744 mmHg 76%
    06:00 +1°C° 0 mm 5 mps 744 mmHg 75%
    07:00 +1°C° 0 mm 5 mps 744 mmHg 75%
    08:00 +1°C° 0 mm 5 mps 745 mmHg 76%
    09:00 +1°C° 0 mm 5 mps 745 mmHg 76%
    10:00 +2°C° 0 mm 5 mps 745 mmHg 72%
    11:00 +3°C° 0 mm 5 mps 746 mmHg 69%
    12:00 +4°C° 0 mm 6 mps 746 mmHg 66%
    13:00 +4°C° 0 mm 6 mps 746 mmHg 64%
    14:00 +5°C° 0 mm 6 mps 746 mmHg 62%
    15:00 +5°C° 0 mm 6 mps 746 mmHg 60%
    16:00 +4°C° 0 mm 6 mps 747 mmHg 62%
    17:00 +5°C° 0 mm 5 mps 747 mmHg 64%
    18:00 +3°C° 0 mm 5 mps 747 mmHg 65%
    19:00 +3°C° 0 mm 4 mps 747 mmHg 67%
    20:00 +3°C° 0 mm 4 mps 747 mmHg 69%
    21:00 +2°C° 0 mm 3 mps 748 mmHg 71%
    22:00 +2°C° 0 mm 3 mps 748 mmHg 75%
    23:00 +1°C° 0 mm 3 mps 748 mmHg 78%

    Tomorrow, 24 September, Tuesday

    Time Temperature Precipitation Wind Pressure Humidity
    00:00 0°C° 0 mm 3 mps 748 mmHg 82%
    01:00 0°C° 0 mm 3 mps 748 mmHg 84%
    02:00 0°C° 0 mm 3 mps 748 mmHg 86%
    03:00 -1°C° 0 mm 3 mps 748 mmHg 88%
    04:00 -1°C° 0 mm 3 mps 748 mmHg 90%
    05:00 -1°C° 0 mm 2 mps 748 mmHg 91%
    06:00 -1°C° 0 mm 2 mps 748 mmHg 93%
    07:00 0°C° 0 mm 3 mps 748 mmHg 88%
    08:00 +1°C° 0 mm 3 mps 748 mmHg 83%
    09:00 +2°C° 0 mm 3 mps 748 mmHg 79%
    10:00 +3°C° 0 mm 3 mps 748 mmHg 76%
    11:00 +4°C° 0 mm 3 mps 748 mmHg 73%
    12:00 +5°C° 0 mm 4 mps 748 mmHg 70%
    13:00 +5°C° 0.1 mm 3 mps 748 mmHg 70%
    14:00 +5°C° 0.1 mm 3 mps 748 mmHg 70%
    15:00 +5°C° 0.1 mm 3 mps 748 mmHg 69%
    16:00 +4°C° 0 mm 3 mps 748 mmHg 73%
    17:00 +5°C° 0 mm 2 mps 748 mmHg 76%
    18:00 +4°C° 0 mm 2 mps 748 mmHg 79%
    19:00 +3°C° 0 mm 2 mps 748 mmHg 83%
    20:00 +3°C° 0 mm 1 mps 748 mmHg 87%
    21:00 +2°C° 0 mm 1 mps 748 mmHg 92%
    22:00 +1°C° 0 mm 2 mps 748 mmHg 93%
    23:00 +1°C° 0 mm 2 mps 748 mmHg 94%

    Day after tomorrow, 25 September, Wednesday

    Time Temperature Precipitation Wind Pressure Humidity
    00:00 -1°C° 0 mm 2 mps 748 mmHg 95%
    01:00 -1°C° 0 mm 2 mps 749 mmHg 95%
    02:00 -1°C° 0 mm 2 mps 749 mmHg 95%
    03:00 -1°C° 0 mm 2 mps 749 mmHg 96%
    04:00 -1°C° 0 mm 2 mps 749 mmHg 96%
    05:00 -2°C° 0 mm 2 mps 749 mmHg 96%
    06:00 -2°C° 0 mm 2 mps 749 mmHg 97%
    07:00 -1°C° 0 mm 2 mps 749 mmHg 92%
    08:00 +2°C° 0 mm 2 mps 749 mmHg 87%
    09:00 +3°C° 0 mm 2 mps 749 mmHg 82%
    10:00 +5°C° 0 mm 2 mps 749 mmHg 74%
    11:00 +6°C° 0 mm 2 mps 749 mmHg 66%
    12:00 +7°C° 0 mm 2 mps 750 mmHg 58%
    13:00 +8°C° 0 mm 2 mps 749 mmHg 56%
    14:00 +8°C° 0 mm 2 mps 749 mmHg 54%
    15:00 +8°C° 0 mm 2 mps 749 mmHg 51%
    16:00 +7°C° 0 mm 2 mps 749 mmHg 57%
    17:00 +7°C° 0 mm 1 mps 749 mmHg 64%
    18:00 +6°C° 0 mm 1 mps 749 mmHg 70%
    19:00 +6°C° 0 mm 1 mps 749 mmHg 74%
    20:00 +5°C° 0 mm 1 mps 749 mmHg 78%
    21:00 +4°C° 0 mm 1 mps 749 mmHg 82%
    22:00 +4°C° 0 mm 1 mps 749 mmHg 83%
    23:00 +4°C° 0 mm 1 mps 749 mmHg 84%

    26 September, Thursday

    Time Temperature Precipitation Wind Pressure Humidity
    00:00 +4°C° 0 mm 1 mps 749 mmHg 85%
    01:00 +4°C° 0 mm 1 mps 750 mmHg 86%
    02:00 +4°C° 0 mm 1 mps 750 mmHg 87%
    03:00 +4°C° 0 mm 1 mps 750 mmHg 89%
    04:00 +3°C° 0 mm 1 mps 750 mmHg 90%
    05:00 +3°C° 0 mm 1 mps 750 mmHg 91%
    06:00 +2°C° 0 mm 1 mps 750 mmHg 92%
    07:00 +4°C° 0 mm 1 mps 750 mmHg 86%
    08:00 +5°C° 0 mm 1 mps 750 mmHg 80%
    09:00 +7°C° 0 mm 1 mps 750 mmHg 74%
    10:00 +8°C° 0 mm 1 mps 750 mmHg 68%
    11:00 +10°C° 0 mm 1 mps 750 mmHg 62%
    12:00 +11°C° 0 mm 1 mps 750 mmHg 56%
    13:00 +12°C° 0 mm 1 mps 750 mmHg 54%
    14:00 +12°C° 0 mm 2 mps 750 mmHg 52%
    15:00 +12°C° 0 mm 2 mps 749 mmHg 50%
    16:00 +11°C° 0 mm 1 mps 749 mmHg 55%
    17:00 +10°C° 0 mm 1 mps 749 mmHg 60%
    18:00 +9°C° 0 mm 1 mps 749 mmHg 65%
    19:00 +8°C° 0 mm 1 mps 749 mmHg 68%
    20:00 +7°C° 0 mm 1 mps 749 mmHg 72%
    21:00 +6°C° 0 mm 1 mps 749 mmHg 75%
    22:00 +5°C° 0 mm 1 mps 749 mmHg 77%
    23:00 +5°C° 0 mm 1 mps 749 mmHg 78%

    27 September, Friday

    Time Temperature Precipitation Wind Pressure Humidity
    00:00 +5°C° 0 mm 1 mps 749 mmHg 80%
    01:00 +5°C° 0 mm 1 mps 749 mmHg 82%
    02:00 +5°C° 0 mm 1 mps 749 mmHg 85%
    03:00 +4°C° 0 mm 1 mps 749 mmHg 87%
    04:00 +5°C° 0 mm 1 mps 749 mmHg 87%
    05:00 +5°C° 0 mm 1 mps 749 mmHg 86%
    06:00 +6°C° 0 mm 1 mps 748 mmHg 86%
    07:00 +6°C° 0 mm 1 mps 748 mmHg 84%
    08:00 +6°C° 0 mm 0 mps 748 mmHg 83%
    09:00 +7°C° 0 mm 0 mps 748 mmHg 81%
    10:00 +8°C° 0 mm 0 mps 749 mmHg 77%
    11:00 +10°C° 0 mm 0 mps 749 mmHg 73%
    12:00 +11°C° 0 mm 0 mps 749 mmHg 68%
    13:00 +11°C° 0 mm 0 mps 749 mmHg 68%
    14:00 +11°C° 0 mm 0 mps 749 mmHg 67%
    15:00 +12°C° 0 mm 0 mps 748 mmHg 67%
    16:00 +11°C° 0 mm 0 mps 748 mmHg 71%
    17:00 +10°C° 0 mm 0 mps 748 mmHg 75%
    18:00 +9°C° 0 mm 0 mps 749 mmHg 79%
    19:00 +9°C° 0 mm 0 mps 749 mmHg 80%
    20:00 +9°C° 0 mm 0 mps 749 mmHg 82%
    21:00 +8°C° 0 mm 0 mps 749 mmHg 83%
    22:00 +8°C° 0 mm 0 mps 750 mmHg 84%
    23:00 +7°C° 0 mm 0 mps 750 mmHg 85%

    28 September, Saturday

    Time Temperature Precipitation Wind Pressure Humidity
    00:00 +7°C° 0 mm 0 mps 750 mmHg 86%
    01:00 +7°C° 0 mm 0 mps 750 mmHg 87%
    02:00 +7°C° 0 mm 1 mps 750 mmHg 88%
    03:00 +7°C° 0 mm 1 mps 750 mmHg 88%
    04:00 +7°C° 0 mm 1 mps 750 mmHg 89%
    05:00 +6°C° 0 mm 1 mps 750 mmHg 90%
    06:00 +6°C° 0 mm 1 mps 750 mmHg 91%
    07:00 +8°C° 0 mm 1 mps 751 mmHg 88%
    08:00 +9°C° 0 mm 1 mps 751 mmHg 85%
    09:00 +10°C° 0 mm 1 mps 751 mmHg 81%
    10:00 +10°C° 0 mm 2 mps 751 mmHg 76%
    11:00 +12°C° 0 mm 2 mps 751 mmHg 71%
    12:00 +13°C° 0 mm 3 mps 751 mmHg 65%
    13:00 +13°C° 0 mm 3 mps 751 mmHg 63%
    14:00 +13°C° 0 mm 3 mps 750 mmHg 61%
    15:00 +14°C° 0 mm 3 mps 750 mmHg 58%
    16:00 +13°C° 0 mm 3 mps 750 mmHg 64%
    17:00 +12°C° 0 mm 2 mps 749 mmHg 69%
    18:00 +10°C° 0 mm 2 mps 749 mmHg 75%
    19:00 +10°C° 0 mm 2 mps 749 mmHg 76%
    20:00 +9°C° 0 mm 2 mps 749 mmHg 77%
    21:00 +9°C° 0 mm 3 mps 749 mmHg 79%
    22:00 +9°C° 0 mm 3 mps 749 mmHg 77%
    23:00 +9°C° 0 mm 3 mps 749 mmHg 76%
    Show more